When you browse on this site, cookies collect data to enhance your experience and personalize the content and advertising you see.
Visit our Privacy Policy to learn more. By continuing to use the site, you agree to this use of cookies and data.
  • In Portugal
  • List of Countries
  • For 7 days
  • Water Temperature
  • Satellite Maps
  • Weather Map
  • Weather Widgets
  • user-avatar
    Login

    Hourly Weather Zychce

    Today, 23 July, Tuesday

    Time Temperature Precipitation Wind Pressure Humidity
    00:00 +16°C° 0 mm 1 mps 752 mmHg 78%
    01:00 +16°C° 0 mm 1 mps 752 mmHg 80%
    02:00 +16°C° 0.1 mm 1 mps 752 mmHg 82%
    03:00 +16°C° 0.1 mm 1 mps 751 mmHg 84%
    04:00 +15°C° 0.1 mm 1 mps 751 mmHg 87%
    05:00 +15°C° 0.2 mm 1 mps 751 mmHg 89%
    06:00 +16°C° 0.2 mm 1 mps 751 mmHg 91%
    07:00 +16°C° 0.2 mm 1 mps 751 mmHg 94%
    08:00 +16°C° 0 mm 1 mps 752 mmHg 93%
    09:00 +18°C° 0 mm 1 mps 752 mmHg 93%
    10:00 +18°C° 0 mm 1 mps 752 mmHg 92%
    11:00 +18°C° 0 mm 2 mps 752 mmHg 92%
    12:00 +18°C° 0 mm 2 mps 752 mmHg 91%
    13:00 +19°C° 0 mm 2 mps 752 mmHg 91%
    14:00 +20°C° 0 mm 3 mps 752 mmHg 86%
    15:00 +21°C° 0 mm 3 mps 752 mmHg 81%
    16:00 +22°C° 0 mm 3 mps 752 mmHg 76%
    17:00 +22°C° 0 mm 3 mps 751 mmHg 78%
    18:00 +21°C° 0 mm 3 mps 751 mmHg 80%
    19:00 +21°C° 0 mm 2 mps 751 mmHg 81%
    20:00 +20°C° 0 mm 2 mps 751 mmHg 86%
    21:00 +19°C° 0 mm 2 mps 751 mmHg 90%
    22:00 +18°C° 0 mm 2 mps 751 mmHg 94%
    23:00 +18°C° 0 mm 2 mps 751 mmHg 95%

    Tomorrow, 24 July, Wednesday

    Time Temperature Precipitation Wind Pressure Humidity
    00:00 +18°C° 0 mm 2 mps 751 mmHg 95%
    01:00 +18°C° 0 mm 2 mps 751 mmHg 95%
    02:00 +17°C° 0 mm 2 mps 751 mmHg 96%
    03:00 +18°C° 0 mm 1 mps 750 mmHg 96%
    04:00 +18°C° 0 mm 1 mps 750 mmHg 97%
    05:00 +19°C° 0 mm 1 mps 750 mmHg 92%
    06:00 +21°C° 0 mm 1 mps 750 mmHg 86%
    07:00 +23°C° 0 mm 2 mps 750 mmHg 80%
    08:00 +24°C° 0 mm 2 mps 751 mmHg 73%
    09:00 +25°C° 0 mm 2 mps 751 mmHg 66%
    10:00 +27°C° 0 mm 2 mps 751 mmHg 59%
    11:00 +28°C° 0.1 mm 2 mps 751 mmHg 57%
    12:00 +28°C° 0.1 mm 2 mps 751 mmHg 55%
    13:00 +29°C° 0.1 mm 2 mps 751 mmHg 52%
    14:00 +29°C° 0.2 mm 2 mps 751 mmHg 55%
    15:00 +28°C° 0.2 mm 3 mps 751 mmHg 57%
    16:00 +28°C° 0.2 mm 3 mps 751 mmHg 59%
    17:00 +27°C° 0.1 mm 3 mps 751 mmHg 65%
    18:00 +26°C° 0.1 mm 2 mps 750 mmHg 71%
    19:00 +24°C° 0.1 mm 2 mps 750 mmHg 77%
    20:00 +23°C° 0 mm 2 mps 751 mmHg 83%
    21:00 +21°C° 0 mm 1 mps 751 mmHg 88%
    22:00 +20°C° 0 mm 1 mps 751 mmHg 94%
    23:00 +19°C° 0 mm 1 mps 751 mmHg 94%

    Day after tomorrow, 25 July, Thursday

    Time Temperature Precipitation Wind Pressure Humidity
    00:00 +19°C° 0 mm 1 mps 751 mmHg 94%
    01:00 +18°C° 0 mm 1 mps 751 mmHg 94%
    02:00 +18°C° 0 mm 1 mps 751 mmHg 95%
    03:00 +18°C° 0 mm 1 mps 751 mmHg 95%
    04:00 +16°C° 0 mm 0 mps 751 mmHg 95%
    05:00 +19°C° 0 mm 1 mps 751 mmHg 89%
    06:00 +21°C° 0 mm 1 mps 751 mmHg 83%
    07:00 +22°C° 0 mm 1 mps 751 mmHg 77%
    08:00 +24°C° 0 mm 1 mps 752 mmHg 69%
    09:00 +26°C° 0 mm 1 mps 752 mmHg 60%
    10:00 +27°C° 0 mm 2 mps 752 mmHg 52%
    11:00 +28°C° 0 mm 2 mps 752 mmHg 48%
    12:00 +29°C° 0 mm 2 mps 752 mmHg 44%
    13:00 +30°C° 0 mm 3 mps 752 mmHg 40%
    14:00 +30°C° 0 mm 3 mps 752 mmHg 41%
    15:00 +29°C° 0 mm 3 mps 751 mmHg 42%
    16:00 +29°C° 0 mm 4 mps 751 mmHg 43%
    17:00 +27°C° 0 mm 3 mps 751 mmHg 48%
    18:00 +26°C° 0 mm 3 mps 751 mmHg 54%
    19:00 +24°C° 0 mm 3 mps 751 mmHg 60%
    20:00 +21°C° 0 mm 2 mps 751 mmHg 65%
    21:00 +20°C° 0 mm 2 mps 751 mmHg 71%
    22:00 +18°C° 0 mm 2 mps 751 mmHg 77%
    23:00 +17°C° 0 mm 2 mps 751 mmHg 80%

    26 July, Friday

    Time Temperature Precipitation Wind Pressure Humidity
    00:00 +17°C° 0 mm 2 mps 751 mmHg 83%
    01:00 +16°C° 0 mm 1 mps 751 mmHg 86%
    02:00 +16°C° 0 mm 2 mps 751 mmHg 90%
    03:00 +16°C° 0 mm 2 mps 751 mmHg 93%
    04:00 +15°C° 0 mm 2 mps 751 mmHg 96%
    05:00 +17°C° 0 mm 2 mps 750 mmHg 87%
    06:00 +19°C° 0 mm 3 mps 750 mmHg 78%
    07:00 +21°C° 0 mm 3 mps 750 mmHg 69%
    08:00 +22°C° 0 mm 3 mps 750 mmHg 61%
    09:00 +25°C° 0 mm 4 mps 751 mmHg 54%
    10:00 +26°C° 0 mm 4 mps 751 mmHg 47%
    11:00 +27°C° 0 mm 4 mps 750 mmHg 45%
    12:00 +27°C° 0 mm 4 mps 750 mmHg 44%
    13:00 +28°C° 0 mm 4 mps 750 mmHg 43%
    14:00 +28°C° 0 mm 4 mps 750 mmHg 44%
    15:00 +27°C° 0 mm 4 mps 749 mmHg 45%
    16:00 +27°C° 0 mm 5 mps 749 mmHg 46%
    17:00 +25°C° 0 mm 4 mps 749 mmHg 53%
    18:00 +23°C° 0 mm 4 mps 749 mmHg 59%
    19:00 +21°C° 0 mm 4 mps 749 mmHg 66%
    20:00 +20°C° 0 mm 3 mps 749 mmHg 72%
    21:00 +18°C° 0 mm 3 mps 749 mmHg 79%
    22:00 +17°C° 0 mm 2 mps 749 mmHg 86%
    23:00 +17°C° 0 mm 2 mps 749 mmHg 89%

    27 July, Saturday

    Time Temperature Precipitation Wind Pressure Humidity
    00:00 +16°C° 0 mm 2 mps 748 mmHg 92%
    01:00 +16°C° 0 mm 2 mps 748 mmHg 95%
    02:00 +16°C° 0 mm 2 mps 748 mmHg 95%
    03:00 +16°C° 0 mm 2 mps 748 mmHg 96%
    04:00 +16°C° 0 mm 2 mps 748 mmHg 97%
    05:00 +18°C° 0 mm 2 mps 748 mmHg 90%
    06:00 +20°C° 0 mm 3 mps 748 mmHg 82%
    07:00 +21°C° 0 mm 3 mps 748 mmHg 75%
    08:00 +23°C° 0 mm 4 mps 748 mmHg 69%
    09:00 +25°C° 0 mm 4 mps 748 mmHg 63%
    10:00 +27°C° 0 mm 4 mps 748 mmHg 57%
    11:00 +28°C° 0 mm 5 mps 748 mmHg 53%
    12:00 +29°C° 0 mm 5 mps 748 mmHg 49%
    13:00 +30°C° 0 mm 5 mps 747 mmHg 45%
    14:00 +29°C° 0 mm 5 mps 747 mmHg 47%
    15:00 +29°C° 0 mm 5 mps 747 mmHg 49%
    16:00 +29°C° 0 mm 5 mps 747 mmHg 51%
    17:00 +28°C° 0 mm 4 mps 746 mmHg 58%
    18:00 +26°C° 0 mm 4 mps 746 mmHg 65%
    19:00 +25°C° 0 mm 4 mps 746 mmHg 71%
    20:00 +24°C° 0 mm 3 mps 746 mmHg 76%
    21:00 +22°C° 0 mm 3 mps 746 mmHg 81%
    22:00 +20°C° 0 mm 3 mps 746 mmHg 86%
    23:00 +20°C° 0 mm 3 mps 746 mmHg 88%

    28 July, Sunday

    Time Temperature Precipitation Wind Pressure Humidity
    00:00 +20°C° 0 mm 3 mps 746 mmHg 90%
    01:00 +20°C° 0 mm 2 mps 746 mmHg 92%
    02:00 +19°C° 0 mm 2 mps 746 mmHg 93%
    03:00 +19°C° 0 mm 2 mps 746 mmHg 94%
    04:00 +19°C° 0 mm 3 mps 746 mmHg 95%
    05:00 +20°C° 0 mm 3 mps 746 mmHg 87%
    06:00 +22°C° 0 mm 3 mps 747 mmHg 79%
    07:00 +25°C° 0 mm 3 mps 747 mmHg 71%
    08:00 +26°C° 0 mm 4 mps 747 mmHg 63%
    09:00 +28°C° 0 mm 5 mps 747 mmHg 56%
    10:00 +29°C° 0 mm 5 mps 747 mmHg 48%
    11:00 +30°C° 0 mm 5 mps 747 mmHg 46%
    12:00 +32°C° 0 mm 5 mps 747 mmHg 44%
    13:00 +32°C° 0 mm 5 mps 747 mmHg 42%
    14:00 +32°C° 0 mm 5 mps 747 mmHg 44%
    15:00 +30°C° 0 mm 5 mps 747 mmHg 46%
    16:00 +30°C° 0 mm 4 mps 747 mmHg 48%
    17:00 +29°C° 0 mm 4 mps 747 mmHg 54%
    18:00 +27°C° 0 mm 4 mps 747 mmHg 59%
    19:00 +26°C° 0 mm 3 mps 747 mmHg 64%
    20:00 +24°C° 0 mm 3 mps 747 mmHg 70%
    21:00 +22°C° 0 mm 3 mps 747 mmHg 76%
    22:00 +20°C° 0 mm 2 mps 747 mmHg 81%
    23:00 +20°C° 0 mm 2 mps 747 mmHg 82%
    Show more